Hatchet Creek Weather Center

Moon Phase Calendar



Online Cameras

 


      

Current Conditions in Rockford
6/15/2024 8:34:49 AM

81°F
Feels Like 83
Clear
Humidity
57%
Pressure
29.97"
Wind
0.5 mph (ESE)
Dew Point
65°F
UV Index
4/10 (Moderate)
Visibility
6 mi

Hourly Forecast

Date & Time Sat, Jun 15
8:00 AM
Sat, Jun 15
9:00 AM
Sat, Jun 15
10:00 AM
Sat, Jun 15
11:00 AM
Sat, Jun 15
12:00 PM
Sat, Jun 15
1:00 PM
Sat, Jun 15
2:00 PM
Sat, Jun 15
3:00 PM
Sat, Jun 15
4:00 PM
Sat, Jun 15
5:00 PM
Sat, Jun 15
6:00 PM
Sat, Jun 15
7:00 PM
Sat, Jun 15
8:00 PM
Sat, Jun 15
9:00 PM
Sat, Jun 15
10:00 PM
Sat, Jun 15
11:00 PM
Sun, Jun 16
12:00 AM
Sun, Jun 16
1:00 AM
Sun, Jun 16
2:00 AM
Sun, Jun 16
3:00 AM
Sun, Jun 16
4:00 AM
Sun, Jun 16
5:00 AM
Sun, Jun 16
6:00 AM
Sun, Jun 16
7:00 AM
Sun, Jun 16
8:00 AM
Sun, Jun 16
9:00 AM
Sun, Jun 16
10:00 AM
Sun, Jun 16
11:00 AM
Sun, Jun 16
12:00 PM
Sun, Jun 16
1:00 PM
Sun, Jun 16
2:00 PM
Sun, Jun 16
3:00 PM
Sun, Jun 16
4:00 PM
Sun, Jun 16
5:00 PM
Sun, Jun 16
6:00 PM
Sun, Jun 16
7:00 PM
Sun, Jun 16
8:00 PM
Sun, Jun 16
9:00 PM
Sun, Jun 16
10:00 PM
Sun, Jun 16
11:00 PM
Mon, Jun 17
12:00 AM
Mon, Jun 17
1:00 AM
Mon, Jun 17
2:00 AM
Mon, Jun 17
3:00 AM
Mon, Jun 17
4:00 AM
Mon, Jun 17
5:00 AM
Mon, Jun 17
6:00 AM
Mon, Jun 17
7:00 AM
Condition
Clear

Clear

Clear

Clear

Clear

Clear

Clouds

Clouds

Clouds

Rain

Rain

Rain

Rain

Rain

Rain

Clouds

Clouds

Rain

Clouds

Clouds

Clouds

Clouds

Clear

Clear

Clear

Clear

Clear

Clear

Clear

Clear

Clear

Clouds

Clouds

Clouds

Clouds

Clouds

Clouds

Clouds

Clouds

Clouds

Clouds

Clouds

Clouds

Clouds

Clouds

Clouds

Clouds

Clouds
Temperature 81°F81°F83°F86°F90°F95°F99°F98°F92°F84°F73°F73°F74°F73°F72°F71°F71°F70°F70°F70°F69°F70°F70°F73°F78°F83°F87°F90°F93°F95°F96°F97°F95°F87°F87°F84°F79°F77°F76°F74°F73°F74°F74°F73°F73°F72°F72°F74°F
Feels Like 83°F83°F85°F88°F93°F98°F102°F101°F99°F88°F74°F75°F75°F73°F73°F72°F72°F71°F71°F70°F70°F71°F71°F74°F79°F86°F90°F92°F95°F97°F96°F96°F96°F89°F88°F86°F79°F77°F76°F75°F74°F75°F74°F73°F74°F73°F73°F75°F
Cloudiness 0%0%0%0%0%0%47%53%70%78%83%87%100%96%89%92%93%86%49%23%16%12%10%8%0%0%0%0%0%0%1%19%45%59%67%72%100%100%100%100%87%89%100%100%100%100%100%100%
Visibility 6 mi6 mi6 mi6 mi6 mi6 mi6 mi6 mi6 mi6 mi5 mi5 mi6 mi6 mi6 mi6 mi6 mi6 mi6 mi6 mi6 mi6 mi6 mi6 mi6 mi6 mi6 mi6 mi6 mi6 mi6 mi6 mi6 mi6 mi6 mi6 mi6 mi6 mi6 mi6 mi6 mi6 mi6 mi6 mi6 mi6 mi6 mi6 mi
Precipitation 0%0%0%0%0%0%0%0%0%20%100%100%100%100%100%80%80%100%0%0%0%0%0%0%0%0%0%0%0%0%0%0%0%0%0%0%0%0%0%0%0%0%0%0%0%0%0%0%
Humidity 59%57%55%51%46%40%33%32%49%62%91%93%84%83%82%81%81%84%85%87%89%89%90%88%75%61%51%43%38%34%30%29%32%46%47%54%62%65%68%72%73%70%71%76%77%81%85%84%
Dew Point 66°F65°F65°F66°F67°F66°F65°F64°F71°F70°F70°F71°F69°F67°F66°F65°F65°F65°F65°F66°F66°F66°F67°F69°F69°F68°F67°F65°F64°F62°F60°F60°F61°F64°F64°F66°F65°F65°F64°F64°F64°F64°F64°F64°F65°F66°F67°F69°F
Pressure 29.97"29.97"29.97"29.97"29.94"29.94"29.91"29.88"29.88"29.88"29.94"29.94"29.94"29.94"29.97"29.97"29.97"29.97"29.97"29.97"29.97"29.97"30"30.03"30.03"30.03"30.03"30"30"30"29.97"29.94"29.94"29.94"29.94"29.97"30"30"30.03"30.03"30.03"30.03"30.03"30.03"30.03"30.03"30.06"30.06"
Wind Speed 1.9 mph0.5 mph0.3 mph0.4 mph1.3 mph2 mph2.8 mph2.9 mph3.5 mph4.1 mph9.9 mph6.8 mph5.5 mph1.6 mph2 mph4.2 mph3.8 mph2.8 mph2.8 mph2.4 mph1 mph1.5 mph2.8 mph2.7 mph2.4 mph3.5 mph4.7 mph6.3 mph7 mph7.8 mph9.3 mph8.7 mph10 mph9.1 mph9 mph7.9 mph4.7 mph2.9 mph3.5 mph3.5 mph2.5 mph4.6 mph4.8 mph5.5 mph5.5 mph5.4 mph4.8 mph6.2 mph
Wind
Direction
29°
NNE
120°
ESE
306°
NW
162°
SSE
179°
S
193°
SSW
183°
S
175°
S
189°
S
21°
NNE
11°
N
348°
NNW
318°
NW
200°
SSW
59°
ENE
48°
NE
65°
ENE
91°
E
116°
ESE
152°
SSE
96°
E
123°
ESE
112°
ESE
102°
ESE
112°
ESE
111°
ESE
110°
ESE
114°
ESE
126°
SE
145°
SE
154°
SSE
152°
SSE
160°
SSE
148°
SSE
153°
SSE
154°
SSE
138°
SE
130°
SE
157°
SSE
92°
E
89°
E
96°
E
105°
ESE
126°
SE
131°
SE
122°
ESE
110°
ESE
103°
ESE

Daily Forecast

Date High Low Precip. Humidity
Today
Jun 15

Rain
99 °F
71 °F
100%
46%
Sunday
Jun 16

Rain
97 °F
69 °F
100%
38%
Monday
Jun 17

Rain
85 °F
71 °F
100%
57%
Tuesday
Jun 18

Clouds
90 °F
69 °F
0%
46%
Wednesday
Jun 19

Clouds
89 °F
69 °F
0%
39%
Thursday
Jun 20

Clouds
89 °F
69 °F
0%
40%
Friday
Jun 21

Rain
88 °F
70 °F
27%
58%
Saturday
Jun 22

Rain
94 °F
70 °F
100%
38%
Sunday
Jun 23

Clouds
93 °F
72 °F
0%
37%
Monday
Jun 24

Rain
79 °F
73 °F
100%
97%
Tuesday
Jun 25

Rain
80 °F
72 °F
100%
97%
Wednesday
Jun 26

Rain
84 °F
73 °F
100%
77%
Thursday
Jun 27

Rain
84 °F
72 °F
100%
82%
Friday
Jun 28

Rain
85 °F
72 °F
100%
81%
Saturday
Jun 29

Rain
87 °F
74 °F
100%
92%
Sunday
Jun 30

Rain
97 °F
73 °F
25%
43%

Temperature 8-14 Day Outlook



Precipitation 8-14 Day Outlook






About Us
Contact Us
Site Map
Search Site
Advertise With Us
   
Hatchet.DiscoverRivers.com
THE HATCHET CREEK WEBSITE

Copyright 2024, Discover Rivers
Privacy    |    Legal